contact:dominique.lefevre@mio.osupytheas.fr, maurice.libes@osupytheas.fr, didier.mallarino@osupytheas.fr
Project:EMSO http://www.emso-fr.org/EMSO-France
Depth: 2436.0 m
Title:EMSO Ligure Ouest : Data MII capteur AQUADOPP
Date,Latitude,Longitude,X_East,Y_North,Z_Up,Amplitude_X,Amplitude_Y,Amplitude_Z,Batterie,SoundSpeed,Heading,Pitch,Roll,Pressure,TIS,Speed,Direction
, degrees North, degrees East, m.s-1, m.s-1,m.s-1, 1, 1, 1, Volt, m.s-1, degree, degree, degree, dbar, degree_C, m.s-1, degree
2022-04-14T00:04:03,42.805,6.029,0.07,-0.027,0.027,102.0,103.0,101.0,13.4,1505.2,323.9,-0.8,1.8,2470.571,13.28,0.075,111.1
2022-04-14T00:07:03,42.805,6.029,0.042,-0.019,0.022,103.0,103.0,101.0,13.3,1505.2,332.5,-0.8,1.8,2470.581,13.28,0.046,114.3
2022-04-14T00:10:03,42.805,6.029,0.051,-0.016,-0.006,102.0,104.0,100.0,13.3,1505.2,324.6,-0.7,1.8,2470.547,13.28,0.053,107.4
2022-04-14T00:13:03,42.805,6.029,0.075,-0.015,0.037,103.0,101.0,101.0,13.4,1505.2,330.5,-0.7,1.8,2470.538,13.28,0.076,101.3
2022-04-14T00:16:03,42.805,6.029,0.04,-0.011,0.005,102.0,103.0,100.0,13.4,1505.2,328.8,-0.7,1.8,2470.549,13.28,0.041,105.4
2022-04-14T00:19:03,42.805,6.029,0.056,-0.043,-0.005,101.0,103.0,100.0,13.4,1505.2,331.2,-0.8,1.8,2470.53,13.28,0.07,127.5
2022-04-14T00:22:03,42.805,6.029,0.036,-0.015,-0.012,102.0,102.0,101.0,13.4,1505.2,328.1,-0.8,1.8,2470.53,13.28,0.039,112.6
2022-04-14T00:25:03,42.805,6.029,0.045,-0.019,0.027,102.0,103.0,101.0,13.3,1505.2,322.8,-0.7,1.8,2470.543,13.28,0.048,112.9
2022-04-14T00:28:03,42.805,6.029,0.052,-0.009,0.052,102.0,102.0,101.0,13.3,1505.2,325.7,-0.8,1.8,2470.569,13.28,0.052,99.8
2022-04-14T00:31:03,42.805,6.029,0.065,-0.008,0.029,101.0,100.0,102.0,13.4,1505.2,325.2,-0.8,1.8,2470.526,13.28,0.065,97.0
2022-04-14T00:34:03,42.805,6.029,0.068,-0.007,0.016,102.0,103.0,101.0,13.3,1505.2,326.3,-0.8,1.8,2470.542,13.28,0.068,95.9
2022-04-14T00:37:03,42.805,6.029,0.048,-0.027,0.024,102.0,105.0,101.0,13.3,1505.2,329.4,-0.8,1.8,2470.548,13.28,0.055,119.4
2022-04-14T00:40:03,42.805,6.029,0.061,-0.026,0.03,102.0,102.0,101.0,13.3,1505.2,325.1,-0.8,1.8,2470.536,13.28,0.066,113.1
2022-04-14T00:43:03,42.805,6.029,0.048,-0.028,0.007,102.0,104.0,100.0,13.4,1505.2,328.4,-0.8,1.8,2470.521,13.28,0.055,120.3
2022-04-14T00:46:03,42.805,6.029,0.042,-0.007,0.03,101.0,103.0,101.0,13.4,1505.2,328.0,-0.7,1.8,2470.576,13.28,0.042,99.5
2022-04-14T00:49:03,42.805,6.029,0.039,-0.001,-0.003,102.0,102.0,101.0,13.3,1505.2,326.4,-0.8,1.9,2470.532,13.28,0.039,91.5
2022-04-14T00:52:03,42.805,6.029,0.047,-0.006,0.037,102.0,103.0,101.0,13.4,1505.2,332.3,-0.7,1.8,2470.567,13.28,0.047,97.3
2022-04-14T00:55:03,42.805,6.029,0.063,-0.038,0.009,101.0,105.0,100.0,13.3,1505.2,325.7,-0.7,1.8,2470.52,13.28,0.073,121.1
2022-04-14T00:58:03,42.805,6.029,0.049,-0.032,0.007,101.0,102.0,100.0,13.4,1505.2,331.6,-0.8,1.8,2470.522,13.28,0.058,123.2
2022-04-14T01:01:03,42.805,6.029,0.062,-0.01,0.02,101.0,102.0,101.0,13.3,1505.2,324.1,-0.8,1.8,2470.563,13.28,0.062,99.2
2022-04-14T01:04:02,42.805,6.029,0.048,-0.015,0.013,102.0,104.0,101.0,13.4,1505.2,325.3,-0.8,1.9,2470.56,13.28,0.05,107.4
2022-04-14T01:07:03,42.805,6.029,0.03,0.006,0.019,102.0,105.0,102.0,13.4,1505.2,325.9,-0.8,1.8,2470.543,13.28,0.03,78.7
2022-04-14T01:10:03,42.805,6.029,0.035,-0.01,0.03,102.0,104.0,99.0,13.3,1505.2,329.9,-0.8,1.8,2470.566,13.28,0.036,105.9
2022-04-14T01:13:03,42.805,6.029,0.074,-0.025,0.031,102.0,104.0,100.0,13.4,1505.2,323.8,-0.7,1.8,2470.532,13.28,0.078,108.7
2022-04-14T01:16:03,42.805,6.029,0.057,0.006,0.033,101.0,103.0,101.0,13.4,1505.2,331.9,-0.8,1.8,2470.566,13.28,0.057,84.0
2022-04-14T01:19:03,42.805,6.029,0.045,-0.012,-0.011,101.0,103.0,101.0,13.4,1505.2,325.5,-0.8,1.8,2470.555,13.28,0.046,104.9
2022-04-14T01:22:03,42.805,6.029,0.046,-0.02,0.027,101.0,102.0,101.0,13.3,1505.2,327.4,-0.8,1.8,2470.536,13.28,0.05,113.5
2022-04-14T01:25:03,42.805,6.029,0.06,-0.018,-0.002,102.0,104.0,101.0,13.4,1505.2,330.2,-0.8,1.8,2470.508,13.28,0.062,106.7
2022-04-14T01:28:03,42.805,6.029,0.074,-0.013,-0.002,101.0,104.0,100.0,13.4,1505.2,326.0,-0.8,1.8,2470.563,13.28,0.075,100.0
2022-04-14T01:31:03,42.805,6.029,0.052,-0.006,0.023,103.0,102.0,100.0,13.4,1505.2,325.0,-0.7,1.8,2470.543,13.28,0.052,96.6
2022-04-14T01:34:03,42.805,6.029,0.047,-0.028,0.019,102.0,103.0,101.0,13.4,1505.2,327.8,-0.7,1.8,2470.578,13.28,0.054,120.8
2022-04-14T01:37:03,42.805,6.029,0.077,-0.038,0.02,101.0,102.0,100.0,13.4,1505.2,326.8,-0.7,1.8,2470.553,13.28,0.085,116.3
2022-04-14T01:40:03,42.805,6.029,0.059,-0.016,0.04,102.0,103.0,100.0,13.3,1505.2,322.1,-0.7,1.8,2470.584,13.28,0.061,105.2
2022-04-14T01:43:03,42.805,6.029,0.079,-0.01,0.038,102.0,102.0,101.0,13.4,1505.2,322.7,-0.8,1.8,2470.586,13.28,0.079,97.2
2022-04-14T01:46:03,42.805,6.029,0.045,-0.033,0.025,101.0,103.0,100.0,13.3,1505.2,325.3,-0.7,1.8,2470.559,13.28,0.055,126.3
2022-04-14T01:49:03,42.805,6.029,0.062,0.001,0.048,102.0,102.0,101.0,13.4,1505.2,330.3,-0.8,1.8,2470.58,13.28,0.062,89.1
2022-04-14T01:52:03,42.805,6.029,0.069,-0.021,0.035,102.0,104.0,101.0,13.4,1505.2,324.9,-0.7,1.8,2470.572,13.28,0.072,106.9
2022-04-14T01:55:03,42.805,6.029,0.058,-0.028,-0.014,100.0,103.0,101.0,13.4,1505.2,323.4,-0.7,1.8,2470.58,13.28,0.064,115.8
2022-04-14T01:58:03,42.805,6.029,0.053,-0.008,-0.009,102.0,103.0,101.0,13.4,1505.2,326.3,-0.7,1.8,2470.59,13.28,0.053,98.6
2022-04-14T02:04:03,42.805,6.029,0.071,-0.015,0.026,101.0,103.0,101.0,13.4,1505.2,328.8,-0.7,1.9,2470.622,13.28,0.072,101.9
2022-04-14T02:07:03,42.805,6.029,0.051,-0.037,0.019,102.0,107.0,101.0,13.4,1505.2,330.3,-0.8,1.8,2470.635,13.28,0.063,126.0
2022-04-14T02:10:03,42.805,6.029,0.061,-0.025,0.009,102.0,104.0,99.0,13.4,1505.2,328.3,-0.8,1.8,2470.61,13.28,0.065,112.3
2022-04-14T02:13:03,42.805,6.029,0.072,-0.032,0.036,102.0,104.0,100.0,13.4,1505.2,332.3,-0.7,1.8,2470.63,13.28,0.078,114.0
2022-04-14T02:16:03,42.805,6.029,0.054,-0.018,0.019,101.0,103.0,101.0,13.4,1505.2,326.9,-0.7,1.8,2470.577,13.28,0.056,108.4
2022-04-14T02:19:03,42.805,6.029,0.057,-0.024,0.029,100.0,104.0,100.0,13.3,1505.2,330.5,-0.8,1.8,2470.616,13.28,0.061,112.8
2022-04-14T02:22:03,42.805,6.029,0.038,-0.008,0.026,103.0,102.0,102.0,13.3,1505.2,328.7,-0.8,1.8,2470.563,13.28,0.038,101.9
2022-04-14T02:25:03,42.805,6.029,0.036,-0.032,-0.019,99.0,105.0,102.0,13.4,1505.2,328.3,-0.8,1.8,2470.617,13.28,0.048,131.6
2022-04-14T02:28:03,42.805,6.029,0.035,-0.014,0.008,103.0,104.0,100.0,13.4,1505.2,325.1,-0.8,1.8,2470.626,13.28,0.037,111.8
2022-04-14T02:31:03,42.805,6.029,0.075,-0.042,-0.004,102.0,102.0,101.0,13.4,1505.2,329.3,-0.8,1.8,2470.603,13.28,0.085,119.3
2022-04-14T02:34:03,42.805,6.029,0.04,-0.028,0.013,101.0,105.0,100.0,13.4,1505.2,329.3,-0.7,1.8,2470.651,13.28,0.048,125.0
2022-04-14T02:37:03,42.805,6.029,0.062,-0.025,-0.006,101.0,104.0,101.0,13.4,1505.2,325.1,-0.8,1.9,2470.618,13.28,0.066,112.0
2022-04-14T02:40:03,42.805,6.029,0.028,0.001,0.012,101.0,103.0,101.0,13.4,1505.2,333.6,-0.7,1.8,2470.616,13.28,0.028,88.0
2022-04-14T02:43:03,42.805,6.029,0.063,-0.003,0.017,101.0,103.0,101.0,13.4,1505.2,323.9,-0.8,1.8,2470.662,13.28,0.063,92.7
2022-04-14T02:46:03,42.805,6.029,0.062,-0.028,-0.002,102.0,103.0,101.0,13.3,1505.2,328.7,-0.7,1.8,2470.659,13.28,0.068,114.3
2022-04-14T02:49:03,42.805,6.029,0.042,-0.004,0.012,103.0,102.0,102.0,13.3,1505.2,331.3,-0.8,1.8,2470.634,13.28,0.042,95.4
2022-04-14T02:52:03,42.805,6.029,0.075,-0.011,0.026,100.0,103.0,101.0,13.4,1505.2,330.4,-0.7,1.8,2470.654,13.28,0.075,98.3
2022-04-14T02:55:03,42.805,6.029,0.038,-0.005,0.03,102.0,107.0,101.0,13.4,1505.2,329.4,-0.8,1.8,2470.628,13.28,0.038,97.5
2022-04-14T02:58:03,42.805,6.029,0.045,-0.026,0.005,102.0,103.0,101.0,13.4,1505.2,327.1,-0.8,1.8,2470.641,13.28,0.051,120.0
2022-04-14T03:04:03,42.805,6.029,0.044,-0.025,-0.006,102.0,103.0,101.0,13.4,1505.2,330.6,-0.8,1.8,2470.699,13.28,0.05,119.6
2022-04-14T03:07:03,42.805,6.029,0.049,-0.012,-0.025,101.0,103.0,101.0,13.4,1505.2,325.5,-0.8,1.8,2470.657,13.28,0.05,103.8
2022-04-14T03:10:03,42.805,6.029,0.043,-0.002,-0.003,101.0,106.0,100.0,13.4,1505.2,324.8,-0.8,1.8,2470.681,13.28,0.043,92.7
2022-04-14T03:13:03,42.805,6.029,0.054,-0.005,0.015,102.0,103.0,101.0,13.4,1505.2,327.3,-0.8,1.8,2470.686,13.28,0.054,95.3
2022-04-14T03:16:03,42.805,6.029,0.031,-0.028,-0.029,100.0,104.0,101.0,13.4,1505.2,331.2,-0.8,1.8,2470.644,13.28,0.041,132.1
2022-04-14T03:19:03,42.805,6.029,0.043,0.004,-0.001,102.0,104.0,100.0,13.4,1505.2,324.9,-0.8,1.8,2470.672,13.28,0.043,84.7
2022-04-14T03:22:03,42.805,6.029,0.053,-0.029,-0.011,102.0,103.0,100.0,13.4,1505.2,326.1,-0.8,1.8,2470.669,13.28,0.06,118.7
2022-04-14T03:25:03,42.805,6.029,0.051,-0.013,-0.005,101.0,104.0,101.0,13.4,1505.2,325.5,-0.8,1.8,2470.683,13.28,0.052,104.3
2022-04-14T03:28:03,42.805,6.029,0.021,-0.02,-0.056,102.0,104.0,100.0,13.4,1505.2,328.8,-0.8,1.8,2470.661,13.28,0.028,133.6
2022-04-14T03:31:03,42.805,6.029,0.023,-0.022,-0.019,101.0,102.0,101.0,13.4,1505.2,325.5,-0.8,1.8,2470.657,13.28,0.031,133.7
2022-04-14T03:34:03,42.805,6.029,0.038,-0.014,0.011,103.0,102.0,100.0,13.3,1505.2,328.7,-0.7,1.8,2470.665,13.28,0.04,110.2
2022-04-14T03:37:03,42.805,6.029,0.062,0.006,0.058,102.0,104.0,100.0,13.4,1505.2,324.7,-0.7,1.8,2470.676,13.28,0.062,84.5
2022-04-14T03:40:03,42.805,6.029,0.035,-0.019,-0.003,101.0,103.0,100.0,13.4,1505.2,324.4,-0.8,1.8,2470.663,13.28,0.039,118.5
2022-04-14T03:43:03,42.805,6.029,0.039,0.011,0.023,101.0,103.0,100.0,13.4,1505.2,323.9,-0.8,1.8,2470.651,13.28,0.04,74.3
2022-04-14T03:46:03,42.805,6.029,0.049,-0.004,0.013,102.0,104.0,100.0,13.4,1505.2,324.6,-0.7,1.8,2470.667,13.28,0.049,94.7
2022-04-14T03:49:03,42.805,6.029,0.049,-0.03,0.004,100.0,102.0,102.0,13.3,1505.2,332.1,-0.7,1.8,2470.614,13.28,0.057,121.5
2022-04-14T03:52:03,42.805,6.029,0.025,-0.003,0.01,103.0,103.0,101.0,13.4,1505.2,328.2,-0.8,1.8,2470.663,13.28,0.025,96.8
2022-04-14T03:55:03,42.805,6.029,0.059,-0.007,0.009,102.0,105.0,100.0,13.4,1505.2,326.5,-0.8,1.8,2470.622,13.28,0.059,96.8
2022-04-14T03:58:03,42.805,6.029,0.035,-0.005,0.005,100.0,105.0,100.0,13.4,1505.2,324.5,-0.7,1.8,2470.661,13.28,0.035,98.1
2022-04-14T04:04:03,42.805,6.029,0.043,-0.007,0.013,102.0,102.0,101.0,13.3,1505.2,325.2,-0.8,1.8,2470.692,13.28,0.043,99.2
2022-04-14T04:07:03,42.805,6.029,0.043,-0.02,0.026,103.0,105.0,100.0,13.4,1505.2,333.0,-0.8,1.9,2470.665,13.28,0.047,114.9
2022-04-14T04:10:03,42.805,6.029,0.037,-0.013,0.023,102.0,102.0,101.0,13.3,1505.2,327.9,-0.7,1.8,2470.663,13.28,0.039,109.4
2022-04-14T04:13:03,42.805,6.029,0.046,0.007,0.026,101.0,104.0,101.0,13.3,1505.2,326.4,-0.8,1.8,2470.658,13.28,0.046,81.3
2022-04-14T04:16:03,42.805,6.029,0.028,-0.003,0.006,102.0,106.0,100.0,13.4,1505.2,323.2,-0.8,1.8,2470.646,13.28,0.028,96.1
2022-04-14T04:19:03,42.805,6.029,0.027,0.017,0.034,101.0,105.0,101.0,13.4,1505.2,322.2,-0.8,1.8,2470.668,13.28,0.031,57.8
2022-04-14T04:22:03,42.805,6.029,0.038,-0.004,-0.016,101.0,104.0,100.0,13.4,1505.2,330.6,-0.8,1.8,2470.687,13.28,0.038,96.0
2022-04-14T04:25:03,42.805,6.029,0.024,-0.018,0.011,102.0,105.0,101.0,13.4,1505.2,323.9,-0.7,1.8,2470.635,13.28,0.03,126.9
2022-04-14T04:28:03,42.805,6.029,0.027,-0.016,0.011,102.0,105.0,101.0,13.3,1505.2,332.1,-0.7,1.8,2470.666,13.28,0.031,120.7
2022-04-14T04:31:03,42.805,6.029,0.034,0.009,0.043,102.0,104.0,101.0,13.4,1505.2,329.0,-0.8,1.8,2470.629,13.28,0.035,75.2
2022-04-14T04:34:03,42.805,6.029,0.018,0.006,-0.006,101.0,107.0,101.0,13.4,1505.2,333.4,-0.7,1.8,2470.678,13.28,0.018,71.6
2022-04-14T04:37:03,42.805,6.029,0.029,0.001,0.015,100.0,106.0,100.0,13.4,1505.2,329.6,-0.8,1.8,2470.67,13.28,0.029,88.0
2022-04-14T04:40:03,42.805,6.029,0.053,-0.025,0.018,101.0,103.0,101.0,13.3,1505.2,332.2,-0.8,1.8,2470.68,13.28,0.058,115.3
2022-04-14T04:43:03,42.805,6.029,0.043,0.011,0.034,101.0,104.0,101.0,13.3,1505.2,329.3,-0.8,1.8,2470.702,13.28,0.044,75.7
2022-04-14T04:46:03,42.805,6.029,0.059,0.0,-0.015,102.0,105.0,101.0,13.3,1505.2,325.5,-0.8,1.8,2470.669,13.28,0.058,90.0
2022-04-14T04:49:03,42.805,6.029,0.054,0.006,0.015,103.0,103.0,100.0,13.4,1505.2,325.2,-0.7,1.9,2470.674,13.28,0.054,83.7
2022-04-14T04:52:03,42.805,6.029,0.009,0.006,0.036,101.0,104.0,101.0,13.4,1505.2,332.3,-0.8,1.8,2470.678,13.28,0.01,56.3
2022-04-14T04:55:03,42.805,6.029,0.08,-0.012,0.008,102.0,104.0,101.0,13.4,1505.2,329.4,-0.8,1.8,2470.664,13.28,0.08,98.5
2022-04-14T04:58:03,42.805,6.029,0.053,-0.003,0.064,103.0,106.0,100.0,13.4,1505.2,331.8,-0.7,1.8,2470.676,13.28,0.053,93.2
2022-04-14T05:04:03,42.805,6.029,0.044,-0.004,0.006,101.0,105.0,101.0,13.4,1505.2,324.2,-0.8,1.8,2470.657,13.28,0.044,95.2
2022-04-14T05:07:03,42.805,6.029,0.033,-0.017,0.007,102.0,104.0,100.0,13.4,1505.2,326.0,-0.8,1.8,2470.679,13.28,0.037,117.3
2022-04-14T05:10:03,42.805,6.029,0.06,-0.011,0.034,102.0,106.0,102.0,13.4,1505.2,331.2,-0.8,1.9,2470.712,13.28,0.06,100.4
2022-04-14T05:13:03,42.805,6.029,0.037,-0.008,0.019,101.0,107.0,101.0,13.3,1505.2,333.2,-0.8,1.8,2470.682,13.28,0.037,102.2
2022-04-14T05:16:03,42.805,6.029,0.062,-0.004,0.035,101.0,107.0,100.0,13.4,1505.2,327.7,-0.7,1.9,2470.702,13.28,0.062,93.7
2022-04-14T05:19:03,42.805,6.029,0.023,-0.012,-0.013,102.0,104.0,102.0,13.3,1505.2,325.2,-0.8,1.8,2470.694,13.28,0.025,117.6
2022-04-14T05:22:03,42.805,6.029,0.036,-0.005,0.011,102.0,107.0,101.0,13.3,1505.2,326.4,-0.7,1.8,2470.65,13.28,0.036,97.9
2022-04-14T05:25:03,42.805,6.029,0.06,-0.02,0.012,100.0,107.0,101.0,13.4,1505.2,329.0,-0.8,1.8,2470.665,13.28,0.063,108.4
2022-04-14T05:28:03,42.805,6.029,0.055,0.007,0.014,102.0,105.0,100.0,13.4,1505.2,325.0,-0.8,1.8,2470.661,13.28,0.055,82.7
2022-04-14T05:31:03,42.805,6.029,0.061,-0.014,0.007,100.0,104.0,101.0,13.3,1505.2,323.8,-0.7,1.8,2470.68,13.28,0.062,102.9
2022-04-14T05:34:03,42.805,6.029,0.024,0.003,0.043,102.0,106.0,101.0,13.4,1505.2,322.6,-0.7,1.8,2470.692,13.28,0.024,82.9
2022-04-14T05:37:03,42.805,6.029,0.057,-0.012,0.026,101.0,105.0,101.0,13.4,1505.2,326.0,-0.7,1.8,2470.707,13.28,0.058,101.9
2022-04-14T05:40:03,42.805,6.029,0.028,-0.02,-0.01,101.0,107.0,101.0,13.3,1505.2,332.5,-0.8,1.8,2470.714,13.28,0.034,125.5
2022-04-14T05:43:03,42.805,6.029,0.033,-0.022,0.004,100.0,105.0,101.0,13.4,1505.2,332.7,-0.8,1.9,2470.744,13.28,0.039,123.7
2022-04-14T05:46:03,42.805,6.029,0.04,-0.016,0.019,102.0,105.0,101.0,13.4,1505.2,330.6,-0.8,1.8,2470.723,13.28,0.043,111.8
2022-04-14T05:49:03,42.805,6.029,0.051,0.001,0.023,101.0,105.0,101.0,13.4,1505.2,328.8,-0.8,1.8,2470.717,13.28,0.051,88.9
2022-04-14T05:52:03,42.805,6.029,0.045,-0.022,0.0,101.0,107.0,100.0,13.4,1505.2,331.5,-0.8,1.8,2470.737,13.28,0.05,116.1
2022-04-14T05:55:03,42.805,6.029,0.063,-0.006,0.044,102.0,107.0,100.0,13.3,1505.2,328.5,-0.8,1.8,2470.68,13.28,0.063,95.4
2022-04-14T05:58:03,42.805,6.029,0.033,-0.024,-0.019,101.0,107.0,100.0,13.3,1505.2,332.1,-0.8,1.8,2470.748,13.28,0.04,126.0
2022-04-14T06:04:03,42.805,6.029,0.017,-0.027,-0.035,102.0,105.0,100.0,13.4,1505.2,332.8,-0.8,1.8,2470.704,13.28,0.031,147.8
2022-04-14T06:07:03,42.805,6.029,0.049,-0.007,0.036,102.0,107.0,101.0,13.4,1505.2,333.4,-0.8,1.8,2470.693,13.28,0.049,98.1
2022-04-14T06:10:03,42.805,6.029,0.031,0.013,0.034,103.0,106.0,100.0,13.3,1505.2,323.7,-0.8,1.8,2470.731,13.28,0.033,67.3
2022-04-14T06:13:03,42.805,6.029,0.037,-0.003,0.019,101.0,107.0,100.0,13.4,1505.2,322.9,-0.8,1.8,2470.718,13.28,0.037,94.6
2022-04-14T06:16:03,42.805,6.029,0.043,0.002,0.002,101.0,105.0,101.0,13.3,1505.2,325.8,-0.8,1.8,2470.722,13.28,0.043,87.3
2022-04-14T06:19:03,42.805,6.029,0.019,0.014,0.021,101.0,108.0,101.0,13.4,1505.2,324.2,-0.8,1.8,2470.755,13.28,0.023,53.6
2022-04-14T06:22:03,42.805,6.029,0.046,0.005,0.007,103.0,106.0,101.0,13.4,1505.2,325.8,-0.8,1.8,2470.738,13.28,0.046,83.8
2022-04-14T06:25:03,42.805,6.029,0.079,-0.001,0.014,101.0,106.0,101.0,13.4,1505.2,325.2,-0.8,1.9,2470.821,13.28,0.079,90.7
2022-04-14T06:28:03,42.805,6.029,0.047,0.003,0.025,102.0,106.0,101.0,13.4,1505.2,326.0,-0.8,1.8,2470.802,13.28,0.047,86.4
2022-04-14T06:31:03,42.805,6.029,0.007,0.012,-0.016,102.0,107.0,101.0,13.4,1505.2,328.7,-0.7,1.8,2470.695,13.28,0.013,30.3
2022-04-14T06:34:03,42.805,6.029,0.04,0.002,0.016,103.0,104.0,102.0,13.3,1505.2,326.2,-0.8,1.8,2470.708,13.28,0.04,87.1
2022-04-14T06:37:03,42.805,6.029,0.028,0.0,0.032,102.0,106.0,101.0,13.4,1505.2,329.8,-0.7,1.8,2470.696,13.28,0.028,90.0
2022-04-14T06:40:03,42.805,6.029,0.035,-0.006,0.014,103.0,107.0,100.0,13.4,1505.2,323.9,-0.8,1.8,2470.656,13.28,0.035,99.7
2022-04-14T06:43:03,42.805,6.029,0.052,0.0,0.014,101.0,107.0,101.0,13.4,1505.2,325.7,-0.8,1.8,2470.706,13.28,0.052,90.0
2022-04-14T06:46:03,42.805,6.029,0.021,-0.005,0.0,101.0,106.0,102.0,13.4,1505.2,325.0,-0.8,1.8,2470.827,13.28,0.021,103.4
2022-04-14T06:49:03,42.805,6.029,0.048,-0.022,0.005,101.0,106.0,101.0,13.3,1505.2,328.3,-0.8,1.8,2470.919,13.28,0.052,114.6
2022-04-14T06:52:03,42.805,6.029,0.03,-0.006,0.029,102.0,106.0,100.0,13.4,1505.2,325.5,-0.8,1.8,2470.914,13.28,0.03,101.3
2022-04-14T06:55:03,42.805,6.029,0.039,-0.015,-0.015,101.0,105.0,100.0,13.4,1505.2,322.8,-0.7,1.8,2470.879,13.28,0.041,111.0
2022-04-14T06:58:03,42.805,6.029,0.006,0.011,0.018,101.0,105.0,101.0,13.4,1505.2,331.3,-0.8,1.8,2470.836,13.28,0.012,28.6
2022-04-14T07:04:03,42.805,6.029,0.045,-0.012,-0.004,102.0,106.0,101.0,13.4,1505.2,328.0,-0.8,1.8,2470.998,13.28,0.046,104.9
2022-04-14T07:07:03,42.805,6.029,0.051,0.0,0.023,101.0,105.0,101.0,13.4,1505.2,331.0,-0.7,1.8,2471.05,13.28,0.051,90.0
2022-04-14T07:10:03,42.805,6.029,0.031,0.003,0.001,102.0,106.0,101.0,13.4,1505.2,331.4,-0.7,1.8,2471.053,13.28,0.031,84.5
2022-04-14T07:13:03,42.805,6.029,0.077,-0.002,0.059,101.0,106.0,101.0,13.4,1505.2,325.0,-0.8,1.8,2471.03,13.28,0.077,91.5
2022-04-14T07:16:03,42.805,6.029,0.073,-0.013,0.045,102.0,107.0,100.0,13.4,1505.2,328.7,-0.8,1.8,2470.997,13.28,0.074,100.1
2022-04-14T07:19:03,42.805,6.029,0.023,-0.009,0.022,101.0,107.0,101.0,13.3,1505.2,323.9,-0.8,1.8,2471.079,13.28,0.024,111.4
2022-04-14T07:22:03,42.805,6.029,0.039,-0.012,-0.007,102.0,107.0,101.0,13.4,1505.2,330.1,-0.8,1.8,2471.132,13.28,0.04,107.1
2022-04-14T07:25:03,42.805,6.029,0.017,-0.007,-0.027,102.0,106.0,100.0,13.3,1505.2,329.9,-0.8,1.9,2471.171,13.28,0.018,112.4
2022-04-14T07:28:03,42.805,6.029,0.035,-0.007,0.029,101.0,106.0,101.0,13.3,1505.2,328.3,-0.7,1.8,2470.96,13.28,0.035,101.3
2022-04-14T07:31:03,42.805,6.029,0.044,0.008,0.031,101.0,106.0,101.0,13.4,1505.2,329.0,-0.8,1.8,2470.767,13.28,0.044,79.7
2022-04-14T07:34:03,42.805,6.029,0.012,0.003,-0.012,102.0,105.0,101.0,13.4,1505.2,328.2,-0.8,1.8,2470.635,13.28,0.012,76.0
2022-04-14T07:37:03,42.805,6.029,0.063,-0.013,0.027,101.0,106.0,101.0,13.3,1505.2,325.0,-0.8,1.8,2470.629,13.28,0.064,101.7
2022-04-14T07:40:03,42.805,6.029,0.026,-0.012,0.001,101.0,106.0,100.0,13.4,1505.2,329.4,-0.8,1.8,2470.689,13.28,0.028,114.8
2022-04-14T07:43:03,42.805,6.029,0.038,0.002,0.009,101.0,105.0,101.0,13.4,1505.2,322.3,-0.8,1.8,2470.68,13.28,0.038,87.0
2022-04-14T07:46:03,42.805,6.029,0.062,-0.012,0.043,101.0,106.0,101.0,13.4,1505.2,328.8,-0.8,1.8,2470.682,13.28,0.063,101.0
2022-04-14T07:49:03,42.805,6.029,0.047,0.002,0.043,102.0,105.0,101.0,13.4,1505.2,328.6,-0.7,1.8,2470.742,13.28,0.047,87.6
2022-04-14T07:52:03,42.805,6.029,0.039,-0.017,-0.027,102.0,105.0,101.0,13.3,1505.2,329.3,-0.8,1.8,2470.758,13.28,0.042,113.5
2022-04-14T07:55:03,42.805,6.029,0.015,-0.008,-0.013,102.0,108.0,100.0,13.4,1505.2,325.5,-0.8,1.8,2470.742,13.28,0.017,118.1
2022-04-14T07:58:03,42.805,6.029,0.062,-0.017,0.03,102.0,107.0,100.0,13.3,1505.2,323.2,-0.7,1.8,2470.785,13.28,0.064,105.3
2022-04-14T08:04:03,42.805,6.029,0.073,0.005,0.025,102.0,107.0,101.0,13.4,1505.2,326.6,-0.8,1.8,2470.711,13.28,0.073,86.1
2022-04-14T08:07:03,42.805,6.029,0.038,0.008,0.029,102.0,106.0,101.0,13.3,1505.2,322.9,-0.8,1.8,2470.719,13.28,0.038,78.1
2022-04-14T08:10:03,42.805,6.029,0.066,-0.013,0.036,101.0,107.0,101.0,13.3,1505.2,327.3,-0.7,1.8,2470.77,13.28,0.067,101.1
2022-04-14T08:13:03,42.805,6.029,0.079,-0.013,0.039,102.0,107.0,100.0,13.4,1505.2,329.4,-0.8,1.8,2470.75,13.28,0.08,99.3
2022-04-14T08:16:03,42.805,6.029,0.062,0.002,0.066,102.0,107.0,100.0,13.4,1505.2,323.4,-0.8,1.8,2470.698,13.28,0.062,88.2
2022-04-14T08:19:03,42.805,6.029,0.049,-0.002,0.039,102.0,106.0,101.0,13.4,1505.2,324.3,-0.8,1.8,2470.649,13.28,0.049,92.3
2022-04-14T08:22:03,42.805,6.029,0.028,0.004,0.027,102.0,106.0,101.0,13.4,1505.2,323.3,-0.7,1.8,2470.689,13.28,0.028,81.9
2022-04-14T08:25:03,42.805,6.029,0.053,-0.011,0.028,103.0,106.0,101.0,13.3,1505.2,325.6,-0.7,1.8,2470.68,13.28,0.054,101.7
2022-04-14T08:28:03,42.805,6.029,0.006,-0.017,-0.017,101.0,106.0,101.0,13.4,1505.2,330.7,-0.7,1.8,2470.657,13.28,0.018,160.6
2022-04-14T08:31:03,42.805,6.029,0.009,-0.009,0.005,102.0,106.0,101.0,13.4,1505.2,323.9,-0.8,1.8,2470.65,13.28,0.012,135.0
2022-04-14T08:34:03,42.805,6.029,0.021,-0.017,0.011,102.0,105.0,101.0,13.3,1505.2,325.2,-0.8,1.8,2470.647,13.28,0.027,129.0
2022-04-14T08:37:03,42.805,6.029,0.019,0.011,0.027,102.0,107.0,100.0,13.4,1505.2,323.4,-0.8,1.8,2470.648,13.28,0.021,59.9
2022-04-14T08:40:03,42.805,6.029,0.069,-0.001,0.042,102.0,107.0,101.0,13.4,1505.2,327.5,-0.8,1.8,2470.664,13.28,0.069,90.8
2022-04-14T08:43:03,42.805,6.029,0.051,-0.018,0.007,101.0,105.0,100.0,13.4,1505.2,331.3,-0.8,1.8,2470.685,13.28,0.054,109.4
2022-04-14T08:46:03,42.805,6.029,0.054,-0.002,0.035,101.0,106.0,101.0,13.3,1505.2,328.0,-0.7,1.8,2470.604,13.28,0.054,92.1
2022-04-14T08:49:03,42.805,6.029,0.058,-0.022,-0.006,102.0,106.0,101.0,13.4,1505.2,330.0,-0.7,1.9,2470.656,13.28,0.062,110.8
2022-04-14T08:52:03,42.805,6.029,0.046,0.013,0.033,101.0,107.0,101.0,13.4,1505.2,329.9,-0.7,1.8,2470.647,13.28,0.047,74.2
2022-04-14T08:55:03,42.805,6.029,0.066,0.005,0.042,102.0,105.0,100.0,13.4,1505.2,322.3,-0.8,1.8,2470.69,13.28,0.066,85.7
2022-04-14T08:58:03,42.805,6.029,0.07,0.001,0.083,102.0,105.0,101.0,13.4,1505.2,326.6,-0.7,1.8,2470.636,13.28,0.07,89.2
2022-04-14T09:04:03,42.805,6.029,0.051,-0.011,0.01,102.0,107.0,101.0,13.4,1505.2,329.2,-0.8,1.8,2470.663,13.28,0.052,102.2
2022-04-14T09:07:03,42.805,6.029,0.035,-0.019,-0.006,102.0,105.0,100.0,13.4,1505.2,328.3,-0.8,1.8,2470.665,13.28,0.039,118.5
2022-04-14T09:10:03,42.805,6.029,0.057,-0.007,0.019,102.0,106.0,101.0,13.3,1505.2,328.8,-0.8,1.8,2470.685,13.28,0.057,97.0
2022-04-14T09:13:03,42.805,6.029,0.061,0.014,0.047,100.0,107.0,102.0,13.3,1505.2,323.3,-0.8,1.8,2470.632,13.28,0.062,77.1
2022-04-14T09:16:03,42.805,6.029,0.086,-0.019,0.0,103.0,106.0,100.0,13.3,1505.2,327.4,-0.7,1.8,2470.637,13.28,0.088,102.5
2022-04-14T09:19:03,42.805,6.029,0.055,-0.01,0.023,102.0,104.0,102.0,13.3,1505.2,324.6,-0.8,1.8,2470.661,13.28,0.055,100.3
2022-04-14T09:22:03,42.805,6.029,0.028,-0.016,-0.001,102.0,105.0,101.0,13.3,1505.2,330.1,-0.8,1.8,2470.646,13.28,0.032,119.7
2022-04-14T09:25:03,42.805,6.029,0.053,-0.003,0.067,100.0,107.0,99.0,13.4,1505.2,324.0,-0.8,1.8,2470.718,13.28,0.053,93.2
2022-04-14T09:28:03,42.805,6.029,0.071,-0.009,0.021,102.0,106.0,100.0,13.4,1505.2,329.2,-0.7,1.8,2470.666,13.28,0.071,97.2
2022-04-14T09:31:03,42.805,6.029,0.014,-0.011,0.004,102.0,105.0,101.0,13.3,1505.2,325.0,-0.8,1.8,2470.64,13.28,0.017,128.2
2022-04-14T09:34:03,42.805,6.029,0.045,-0.009,0.012,100.0,106.0,101.0,13.4,1505.2,332.8,-0.8,1.8,2470.677,13.28,0.045,101.3
2022-04-14T09:37:03,42.805,6.029,0.034,-0.003,-0.012,102.0,106.0,100.0,13.4,1505.2,325.0,-0.7,1.8,2470.65,13.28,0.034,95.0
2022-04-14T09:40:03,42.805,6.029,0.078,-0.019,0.038,101.0,105.0,101.0,13.4,1505.2,329.3,-0.8,1.8,2470.697,13.28,0.08,103.7
2022-04-14T09:43:03,42.805,6.029,0.042,-0.011,0.031,102.0,106.0,101.0,13.4,1505.2,325.6,-0.8,1.8,2470.637,13.28,0.043,104.7
2022-04-14T09:46:03,42.805,6.029,0.066,-0.023,0.04,103.0,104.0,101.0,13.4,1505.2,328.8,-0.8,1.8,2470.659,13.28,0.069,109.2
2022-04-14T09:49:03,42.805,6.029,0.016,-0.003,0.027,101.0,104.0,100.0,13.4,1505.2,327.5,-0.8,1.8,2470.646,13.28,0.016,100.6
2022-04-14T09:52:03,42.805,6.029,0.062,0.0,0.048,103.0,104.0,99.0,13.4,1505.2,325.6,-0.8,1.8,2470.642,13.28,0.061,90.0
2022-04-14T09:55:03,42.805,6.029,0.063,-0.028,0.017,101.0,105.0,101.0,13.4,1505.2,331.4,-0.8,1.8,2470.63,13.28,0.068,114.0
2022-04-14T09:58:03,42.805,6.029,0.051,-0.005,0.027,101.0,104.0,101.0,13.4,1505.2,331.4,-0.7,1.9,2470.668,13.28,0.051,95.6